Weather in Ustinovka

Russia / Saratov Oblast     51°27′07″N   43°21′59″E
temp.,
°C
wind,
m/s
gust,
m/s
humid.,
%
clouds,
%
prec.,
mm/h
press.,
hPa
HPBL,
m
20 january, thu
thu2001:00−15sse22100100 0.0 101831
04:00−20s22100100 0.1 10199
07:00−20s22100100 0.0 101917
10:00−19ssw34100100 0.1 102048
13:00−13ssw359685 0.0 1020145
16:00−13s369637 0.0 1019117
19:00−17s369861 0.0 101973
22:00−17s4810092 0.0 1019100
21 january, fri
fri2101:00−17s41110098 0.0 1019135
04:00−17sse4119992 0.0 1018150
07:00−16sse51398100 0.0 1016185
10:00−13sse71696100 0.0 1015299
13:00−9sse91991100 0.0 1013507
16:00−7sse102094100 0.4 1010621
19:00−6sse91894100 0.7 1008610
22:00−2ssw9149587 2.7 10081035
22 january, sat
sat2201:00−7ssw510915 0.1 1011211
04:00−12s499642 0.1 1013132
07:00−12s4119646 0.0 1013137
10:00−12s4109641 0.0 1015156
13:00−7sse4109498 0.0 1016266
16:00−6se3796100 0.0 1016155
19:00−4se4796100 0.0 1017200
22:00−4ese2397100 0.8 1017136
23 january, sun
sun2301:00−4ne0098100 1.4 101820
04:00−5nnw1198100 2.1 101810
07:00−6ene1198100 0.0 102010
10:00−5ne2397100 0.1 102195
13:00−3e3696100 0.9 1022316
16:00−4e5996100 2.8 1022395
19:00−4e61196100 2.2 1023485
22:00−5e71491100 3.9 1024474
24 january, mon
mon2401:00−7e61488100 0.0 1025384
04:00−8ese71588100 0.0 1025370
07:00−8e61489100 0.0 1025389
10:00−8ese71588100 0.0 1026444
13:00−6ese61488100 0.1 1026535
16:00−6ese61388100 0.1 1025528
19:00−7ese71487100 0.0 1026442
22:00−7ese61588100 0.0 1026436